Tracking 34719 objects as of 12-Jul-2026
HD Live streaming from Space Station
objects crossing your sky now

QIANFAN-179

Track QIANFAN-179 now!
10-day predictions
QIANFAN-179 is classified as:


NORAD ID: 69396
Int'l Code: 2026-124Q
Perigee: 878.9 km
Apogee: 887.5 km
Inclination: 89.0 °
Period: 102.5 minutes
Semi major axis: 7254 km
RCS: Unknown
Launch date: June 4, 2026
Source: People's Republic of China (PRC)
Launch site: Taiyaun Space Center, China (TSC)
Your satellite tracking list
Your tracking list is empty




NASA's NSSDC Master Catalog

Two Line Element Set (TLE):
1 69396U 26124Q   26191.90605235 -.01990179  00000-0 -13278+1 0  9996
2 69396  88.9989 359.3352 0005885 167.9589 192.1734 14.05136706  5181
Source of the keplerian elements: AFSPC